This demonstration page uses our WeatherBlox Daily Observations layout. Learn more.

Left ArrowRight Arrow

39.08367, -84.50855

Hourly Observations for July 11, 2015

Temp ( °F °C ) Dew Point ( °F °C ) Humidity (%) Winds ( mph kmh ) Pressure ( in mb ) Visibility ( mi km ) Precip ( " mm )
12:18 am 00:18 Mostly Cloudy with Mist and Fog 63 17 63 17 100 100 Calm 30.12 1020 1 1 0.00 0.00
12:33 am 00:33 Mostly Cloudy with Fog 63 17.2 63 17.2 100 100 Calm 30.12 1020 0 0 0.00 0.00
12:53 am 00:53 Mostly Cloudy with Fog 63 17.2 63 17.2 100 100 Calm 30.13 1020 0 0 0.00 0.00
1:05 am 01:05 Mostly Cloudy with Fog 63 17.2 63 17.2 100 100 Calm 30.12 1020 0 0 0.00 0.00
1:28 am 01:28 Mostly Cloudy with Fog 63 17.2 63 17.2 100 100 Calm 30.09 1019 0 0 0.00 0.00
1:35 am 01:35 Mostly Cloudy with Fog 62 16.7 62 16.7 100 100 NE 3 6 30.09 1019 1 1 0.00 0.00
1:53 am 01:53 Mostly Cloudy with Fog 63 17.2 63 17.2 100 100 N 3 6 30.12 1020 0 0 0.00 0.00
2:06 am 02:06 Mostly Cloudy with Fog 63 17 63 17 100 100 Calm 30.09 1019 1 1 0.00 0.00
2:24 am 02:24 Mostly Cloudy with Fog 63 17 63 17 100 100 Calm 30.09 1019 0 0 0.00 0.00
2:53 am 02:53 Mostly Cloudy with Fog 62 16.7 62 16.7 100 100 Calm 30.11 1020 0 0 0.00 0.00
3:53 am 03:53 Mostly Cloudy with Fog 63 17.2 63 17.2 100 100 Calm 30.12 1020 5 8 0.00 0.00
4:53 am 04:53 Mostly Cloudy with Fog 61 16.1 61 16.1 100 100 Calm 30.14 1021 0 0 0.00 0.00
5:31 am 05:31 Cloudy with Mist and Fog 61 16.1 61 16.1 100 100 Calm 30.12 1020 1 1 0.00 0.00
5:35 am 05:35 Cloudy with Mist and Fog 61 16.1 61 16.1 100 100 Calm 30.12 1020 1 2 0.00 0.00
5:53 am 05:53 Cloudy with Mist and Fog 62 16.7 62 16.7 100 100 Calm 30.15 1021 1 2 0.00 0.00
6:17 am 06:17 Cloudy with Mist and Fog 62 16.7 62 16.7 100 100 Calm 30.12 1020 2 3 0.00 0.00
6:25 am 06:25 Cloudy with Mist and Fog 62 16.7 62 16.7 100 100 Calm 30.15 1021 1 1 0.00 0.00
6:46 am 06:46 Mostly Cloudy with Mist and Fog 63 17 63 17 100 100 Calm 30.15 1021 1 1 0.00 0.00
6:53 am 06:53 Mostly Cloudy with Mist and Fog 63 17.2 63 17.2 100 100 Calm 30.17 1022 1 1 0.00 0.00
7:10 am 07:10 Cloudy with Mist and Fog 63 17 63 17 100 100 Calm 30.15 1021 2 3 0.00 0.00
7:27 am 07:27 Cloudy with Mist and Fog 64 17.8 64 17.8 100 100 Calm 30.15 1021 3 4 0.00 0.00
7:44 am 07:44 Cloudy with Mist and Fog 64 18 64 18 100 100 Calm 30.15 1021 3 5 0.00 0.00
7:53 am 07:53 Cloudy with Mist and Fog 64 17.8 64 17.8 100 100 Calm 30.18 1022 3 5 0.00 0.00
8:53 am 08:53 Cloudy with Mist and Fog 65 18.3 64 17.8 97 97 Calm 30.19 1022 3 5 0.00 0.00
9:53 am 09:53 Cloudy with Mist and Fog 68 20 65 18.3 90 90 Calm 30.19 1022 3 5 0.00 0.00
10:53 am 10:53 Cloudy with Mist and Fog 69 20.6 66 18.9 90 90 ESE 3 6 30.19 1022 4 6 0.00 0.00
11:20 am 11:20 Hazy 72 22 66 19 83 83 Calm 30.18 1022 5 8 0.00 0.00
11:53 am 11:53 Mostly Sunny 74 23.3 67 19.4 79 79 Calm 30.19 1022 7 11 0.00 0.00
12:53 pm 12:53 Mostly Sunny 75 23.9 65 18.3 71 71 SSW 5 7 30.19 1022 10 16 0.00 0.00
1:53 pm 13:53 Sunny 78 25.6 64 17.8 62 62 Calm 30.18 1022 10 16 0.00 0.00
2:53 pm 14:53 Partly Cloudy 79 26.1 63 17.2 58 58 VRB 3 6 30.16 1022 10 16 0.00 0.00
3:53 pm 15:53 Partly Cloudy 79 26.1 62 16.7 56 56 SSE 3 6 30.16 1021 10 16 0.00 0.00
4:53 pm 16:53 Mostly Sunny 79 26.1 63 17.2 58 58 ESE 5 7 30.13 1020 10 16 0.00 0.00
5:53 pm 17:53 Sunny 81 27.2 64 17.8 57 57 Calm 30.11 1020 10 16 0.00 0.00
6:53 pm 18:53 Sunny 77 25 66 18.9 69 69 S 5 7 30.12 1020 10 16 0.00 0.00
7:53 pm 19:53 Sunny 77 25 69 20.6 77 77 SSW 3 6 30.10 1019 10 16 0.00 0.00
8:53 pm 20:53 Sunny 72 22.2 68 20 87 87 SSE 3 6 30.09 1019 10 16 0.00 0.00
9:53 pm 21:53 Clear 69 20.6 67 19.4 93 93 Calm 30.10 1019 10 16 0.00 0.00
10:53 pm 22:53 Clear 68 20 66 18.9 93 93 SSW 3 6 30.11 1020 10 16 0.00 0.00
11:53 pm 23:53 Clear 66 18.9 65 18.3 96 96 SSE 3 6 30.09 1019 10 16 0.00 0.00

Powered by AerisWeather